Flag for Germany Weather past 2 weeks in Ingolstadt, Bavaria, Germany

Now
37 °F

Chilly.


Feels Like: 29 °F
Forecast: 34 / 40 °F
Wind: 14 mph from West

Location: Ingolstadt Airport

Current Time: Dec 20, 2014 at 11:35:04 PM

Latest Report: Dec 20, 2014 at 10:20 PM


Visibility: N/A

Pressure: 30.24 "Hg

Humidity: 87%

Dew point: 34 °F

Location of IngolstadtLocation

Historic Weather in Ingolstadt — Graph

°F

Ingolstadt temperature yesterday

Maximum temperature yesterday: 54 °F (at 1:20 PM)
Minimum temperature yesterday: 46 °F (at 11:20 PM)
Average temperature yesterday: 51 °F

Past Weeks' High & Low Weather Summary

 TemperatureHumidityPressure
High54 °F (Dec 19, 1:20 PM)100% (Dec 5, 10:20 PM)30.45 "Hg (Dec 5, 10:20 PM)
Low28 °F (Dec 8, 11:20 PM)54% (Dec 12, 5:20 PM)29.77 "Hg (Dec 12, 4:20 PM)
Average40 °F88%30.05 "Hg
* Reported Dec 5 10:20 PM — Dec 20 10:20 PM, Ingolstadt, Weather by CustomWeather, © 2014

Note: Actual official high and low records may vary slightly from our data, if they occured in-between our weather recording intervals... More about our weather records

Advertising

Ingolstadt weather history for previous 24 hours

 ConditionsComfort  
Time TempWeatherWind HumidityBarometerVisibility
10:20 PM
Dec 20
37 °FChilly.14 mph87%30.24 "HgN/A
9:20 PM39 °FChilly.18 mph87%30.24 "HgN/A
8:20 PM37 °FChilly.14 mph93%30.21 "HgN/A
7:20 PM43 °FQuite cool.20 mph71%30.21 "HgN/A
6:20 PM43 °FQuite cool.20 mph66%30.15 "HgN/A
5:20 PM43 °FQuite cool.17 mph66%30.12 "HgN/A
4:20 PM41 °FQuite cool.18 mph70%30.15 "HgN/A
3:20 PM41 °FQuite cool.17 mph70%30.15 "HgN/A
2:20 PM43 °FQuite cool.13 mph66%30.18 "HgN/A
1:20 PM43 °FQuite cool.18 mph61%30.18 "HgN/A
12:20 PM41 °FQuite cool.17 mph70%30.21 "HgN/A
11:20 AM43 °FQuite cool.15 mph71%30.24 "HgN/A
10:20 AM43 °FQuite cool.14 mph76%30.24 "HgN/A
9:20 AM41 °FQuite cool.7 mph81%30.24 "HgN/A
8:20 AM37 °FChilly.8 mph87%30.24 "HgN/A
7:20 AM37 °FChilly.5 mph87%30.24 "HgN/A
6:20 AM41 °FQuite cool.9 mph76%30.24 "HgN/A
5:20 AM41 °FQuite cool.8 mph87%30.21 "HgN/A
4:20 AM41 °FQuite cool.3 mph87%30.21 "HgN/A
3:20 AM43 °FQuite cool.8 mph81%30.18 "HgN/A
2:20 AM43 °FQuite cool.8 mph81%30.18 "HgN/A
1:20 AM43 °FQuite cool.10 mph87%30.15 "HgN/A
12:20 AM48 °FCool.13 mph82%30.12 "HgN/A
11:20 PM
Dec 19
46 °FCool.10 mph93%30.09 "HgN/A
Weather by CustomWeather, © 2014

See weather overviewHow to use our weather pages